Regional Weather Roundup
Issued by NWS

Home | Current Version | Previous Version | Text Only | Print | Product List | Glossary On
Versions: 1 2 3 4 5 6 7 8 9 10 11 12 13 14 15 16 17 18 19 20 21 22 23 24 25 26 27 28 29 30 31 32 33 34 35 36 37 38 39 40 41 42 43 44 45 46 47 48 49 50
000
ASUS43 KTOP 011859
RWRKS

WEATHER ROUNDUP FOR KANSAS
NATIONAL WEATHER SERVICE GOODLAND KS
200 PM CDT WED OCT 01 2014

NOTE:  "FAIR" INDICATES FEW OR NO CLOUDS BELOW 12,000 FEET WITH NO
SIGNIFICANT WEATHER AND/OR OBSTRUCTIONS TO VISIBILITY.

KSZ001>006-013>018-027>032-041>047-012000-
NORTHWEST KANSAS

CITY           SKY/WX    TMP DP  RH WIND       PRES   REMARKS
GOODLAND       MOSUNNY   73  40  30 VRB5      29.83F
HAYS           PTSUNNY   70  61  73 NE7       29.76F
HILL CITY      MOSUNNY   75  60  59 CALM      29.76F
RUSSELL        PTSUNNY   71  63  75 VRB6      29.74F
$$

KSZ061>065-074>080-084>089-012000-
SOUTHWEST KANSAS

CITY           SKY/WX    TMP DP  RH WIND       PRES   REMARKS
DODGE CITY     SUNNY     80  48  32 N10       29.76F
GARDEN CITY    SUNNY     79  44  28 VRB7      29.77F
GREAT BEND     SUNNY     73  63  68 NE7       29.74F
LIBERAL        SUNNY     81  43  26 NE5       29.79F
$$

KSZ066>073-081>083-090>101-012000-
SOUTHEAST KANSAS

CITY           SKY/WX    TMP DP  RH WIND       PRES   REMARKS
CHANUTE        PTSUNNY   83  69  62 S13       29.73F
COFFEYVILLE    MOSUNNY   88  70  55 S16G23    29.72F
HUTCHINSON     PTSUNNY   84  63  49 E5        29.70F
MEDICINE LODGE   N/A     84  57  39 S8G16     29.68F
NEWTON         PTSUNNY   81  64  57 S8        29.73F
PARSONS        LGT RAIN  86  70  58 S12G22    29.73F
WICHITA INTL   MOSUNNY   85  64  49 S13       29.69F
WICHITA JABRA  MOSUNNY   83  65  54 S13       29.70F
WINFIELD       PTSUNNY   86  67  52 S13       29.71F
$$

KSZ007>012-019>026-033>040-048>060-102>105-012000-
NORTHEAST KANSAS

CITY           SKY/WX    TMP DP  RH WIND       PRES   REMARKS
CONCORDIA      SUNNY     76  66  71 E3        29.73F
EMPORIA        PTSUNNY   80  68  66 S9        29.72F
LAWRENCE       SUNNY     80  65  59 S9        29.74F
MANHATTAN      SUNNY     81  66  60 CALM      29.71F
OLATHE IND     CLOUDY    75  68  78 SE6       29.76F
OLATHE EXE     CLOUDY    74  67  78 S7        29.75F
SALINA         SUNNY     79  66  64 N3        29.72F
TOPEKA BILLARD PTSUNNY   83  67  58 VRB3      29.72F
TOPEKA FORBES  MOSUNNY   81  64  56 SE9       29.73F
$$



USA.gov is the U.S. government's official web portal to all federal, state and local government web resources and services.